STARLINK-2240 (48585 NORAD) Tracking and Keplerian Element Data

This shows tracking and keplerian element data for the satellite.

Feedback or suggestion? Click here.




ElementValue
Catalog48585
NameSTARLINK-2240
Epoch Orbit358
Epoch Day214.91667824
Epoch Year2021
RAAN122.405
Inclination53.0545
Eccentricity0.0001684
Argument of Perigee77.2938
Mean Anonmoly316.6186
Mean Motion15.06420197
Decay Rate-0.00033008
L11 48585U 21041AJ 21214.91667824 -.00033008 00000-0 -22061-2 0 9990
L22 48585 53.0545 122.4050 0001684 77.2938 316.6186 15.06420197 3585

Live tracking and technical data element details for STARLINK-2240 (NORAD 48585). STARLINK-2240 can be tracked NOW for your location showing map with azimuth and elevation plus other details from your city location.

Track the satellite on the map from your city or location and see movement details for azimuth, elevation, latitude, longitude, range, height, and movement on the map or in text.







IsCatalogInMostPopularTable: catalog: 48585, numindb: 20
Update: records affected: 1



GetName: 48585 STARLINK-2240

Hit Count: updated at: Tue, 03 Aug 2021 21:11:03 GMT